Temp
-11 -11 -11 -11 -11 -11 -11 -11 -11 -11 -10 -10 -11 -11 -11 -11 -10 -10 -10 -10 -11 -11 -11 -10 -10 -10 -10 -10 -10 -10 -10 -10 -10 -10 -10 -10 -10 -10 -10 -10 -10 -10 -10
-10 -11 -11 -11 -11 -11 -10 -10 -10 -11 -10 -10 -10 -11 -11 -11 -10 -11 -11 -11 -11 -11 -11 -11 -10 -10 -10 -10 -11 -10 -10 -10 -10 -10 -10 -10 -10 -10 -10 -10 -10 -11 -11
-10 -11 -11 -11 -10 -10 -10 -10 -10 -11 -11 -11 -11 -11 -11 -11 -11 -11 -11 -11 -11 -11 -11 -11 -11 -11 -11 -11 -11 -11 -11 -10 -11 -10 -10 -10 -9 -9 -10 -10 -10 -11 -11
-10 -10 -10 -10 -10 -10 -10 -10 -10 -10 -10 -11 -11 -11 -11 -11 -11 -11 -11 -11 -11 -11 -11 -11 -12 -12 -11 -11 -11 -11 -11 -11 -10 -10 -11 -11 -10 -9 -9 -10 -11 -11 -12
-10 -10 -10 -10 -10 -10 -10 -10 -10 -11 -11 -11 -11 -11 -11 -12 -12 -12 -12 -11 -11 -12 -12 -12 -11 -11 -11 -11 -11 -11 -11 -11 -11 -11 -11 -12 -12 -12 -12 -10 -11 -11 -12
-10 -10 -10 -10 -10 -10 -10 -10 -11 -11 -11 -12 -12 -12 -12 -12 -12 -12 -12 -12 -12 -12 -12 -11 -11 -11 -11 -11 -11 -11 -12 -12 -12 -13 -13 -13 -12 -12 -12 -12 -11 -11 -11
-10 -10 -10 -10 -10 -10 -10 -11 -11 -12 -12 -12 -12 -12 -12 -12 -12 -12 -12 -12 -12 -12 -12 -11 -11 -12 -12 -12 -12 -12 -13 -13 -13 -13 -13 -13 -13 -13 -13 -13 -13 -12 -12
-10 -10 -10 -10 -10 -10 -11 -11 -11 -12 -12 -12 -12 -12 -12 -12 -12 -12 -12 -12 -12 -12 -12 -12 -12 -12 -12 -12 -13 -13 -13 -13 -13 -13 -14 -14 -14 -14 -14 -14 -14 -13 -13
-10 -10 -10 -10 -10 -11 -11 -11 -12 -12 -12 -12 -12 -12 -12 -12 -12 -12 -12 -12 -12 -12 -12 -12 -12 -12 -13 -13 -13 -13 -14 -14 -14 -14 -14 -15 -15 -15 -15 -15 -15 -15 -14
-10 -10 -10 -10 -11 -11 -11 -12 -12 -12 -13 -13 -12 -12 -13 -13 -13 -12 -12 -12 -12 -12 -13 -13 -13 -13 -13 -13 -14 -14 -15 -14 -15 -15 -15 -15 -15 -15 -15 -15 -16 -17 -19
-11 -10 -11 -11 -11 -12 -12 -12 -13 -13 -12 -12 -13 -13 -13 -13 -13 -13 -13 -13 -13 -13 -13 -13 -13 -14 -14 -14 -15 -15 -15 -15 -15 -16 -16 -16 -16 -16 -16 -17 -19 -20 -22
-11 -11 -11 -11 -12 -12 -13 -13 -13 -13 -13 -13 -13 -13 -13 -13 -13 -13 -13 -13 -13 -13 -13 -14 -14 -15 -15 -16 -16 -16 -16 -16 -16 -16 -16 -17 -17 -18 -19 -21 -22 -23 -23
-11 -12 -12 -12 -13 -13 -13 -13 -13 -13 -13 -13 -13 -13 -13 -13 -13 -13 -13 -13 -14 -14 -14 -14 -15 -16 -16 -16 -16 -16 -17 -17 -17 -17 -18 -18 -19 -21 -22 -23 -24 -24 -24
-12 -12 -13 -13 -13 -13 -13 -13 -13 -13 -13 -14 -13 -13 -14 -14 -14 -14 -14 -14 -14 -14 -15 -16 -16 -16 -17 -17 -17 -17 -17 -17 -18 -18 -19 -20 -21 -23 -24 -25 -25 -25 -24
-12 -13 -13 -13 -13 -13 -13 -13 -14 -14 -14 -14 -14 -14 -14 -14 -14 -14 -14 -14 -15 -15 -16 -16 -17 -17 -17 -18 -17 -18 -18 -19 -19 -20 -21 -22 -24 -26 -26 -26 -25 -24 -25
-13 -13 -13 -13 -13 -13 -13 -14 -14 -14 -14 -14 -14 -14 -14 -14 -15 -14 -14 -15 -15 -16 -17 -17 -17 -18 -18 -18 -18 -19 -19 -20 -20 -21 -22 -24 -26 -26 -26 -26 -25 -26 -26
-13 -13 -13 -13 -14 -14 -14 -14 -14 -14 -14 -14 -15 -15 -15 -15 -15 -15 -15 -16 -17 -17 -17 -18 -17 -18 -18 -18 -19 -20 -20 -21 -22 -23 -25 -27 -27 -26 -27 -26 -27 -27 -27
-13 -13 -14 -14 -14 -14 -14 -14 -15 -14 -15 -15 -15 -15 -15 -15 -16 -16 -16 -17 -17 -17 -18 -18 -18 -18 -19 -19 -20 -20 -21 -22 -24 -26 -27 -27 -27 -27 -26 -27 -27 -27 -27
-14 -14 -14 -14 -15 -15 -15 -15 -15 -15 -15 -15 -15 -15 -16 -16 -16 -17 -17 -17 -17 -18 -18 -18 -18 -19 -19 -20 -21 -22 -22 -24 -26 -27 -27 -27 -27 -27 -27 -27 -27 -27 -28
-14 -14 -15 -15 -15 -15 -15 -15 -15 -15 -15 -15 -16 -16 -16 -16 -17 -17 -17 -17 -18 -18 -18 -18 -19 -19 -20 -21 -22 -23 -25 -26 -27 -27 -28 -28 -27 -27 -27 -27 -27 -27 -28
-14 -15 -15 -15 -15 -15 -15 -15 -15 -15 -16 -16 -16 -16 -16 -16 -17 -17 -18 -18 -18 -18 -19 -19 -20 -21 -22 -23 -24 -26 -27 -27 -28 -28 -27 -27 -27 -27 -27 -27 -27 -28 -28
-15 -15 -15 -15 -15 -15 -15 -15 -15 -16 -16 -16 -16 -16 -17 -17 -17 -18 -18 -18 -19 -19 -20 -20 -21 -22 -23 -25 -26 -27 -27 -28 -28 -27 -27 -27 -27 -27 -27 -27 -27 -28 -28
-15 -15 -15 -15 -15 -15 -15 -16 -16 -16 -16 -16 -17 -17 -17 -17 -18 -18 -18 -19 -19 -20 -20 -21 -22 -24 -25 -26 -27 -28 -28 -28 -28 -27 -27 -27 -27 -27 -27 -27 -27 -28 -28
-15 -15 -15 -15 -15 -15 -16 -16 -16 -16 -17 -17 -17 -17 -17 -18 -18 -19 -19 -19 -20 -20 -21 -23 -24 -25 -27 -27 -28 -28 -28 -27 -27 -27 -27 -28 -27 -27 -27 -27 -27 -27 -27
-15 -15 -15 -15 -16 -16 -16 -16 -16 -17 -17 -17 -17 -17 -17 -18 -19 -19 -19 -19 -20 -21 -23 -25 -26 -27 -28 -28 -28 -28 -27 -27 -27 -27 -28 -28 -27 -27 -27 -27 -27 -27 -27
-15 -15 -16 -16 -16 -16 -16 -16 -17 -17 -17 -17 -17 -17 -18 -18 -18 -18 -19 -20 -21 -23 -25 -26 -28 -28 -28 -28 -28 -28 -27 -28 -28 -28 -28 -27 -27 -27 -27 -27 -27 -27 -27
Height
5772 5774 5776 5778 5780 5782 5783 5783 5783 5782 5780 5778 5776 5775 5773 5771 5769 5766 5763 5760 5756 5753 5750 5747 5745 5741 5738 5735 5732 5729 5725 5721 5716 5713 5711 5707 5703 5699 5693 5688 5684 5679 5675
5767 5769 5771 5774 5776 5777 5778 5777 5776 5776 5774 5773 5771 5770 5768 5766 5764 5760 5756 5753 5749 5745 5742 5739 5736 5732 5729 5725 5722 5719 5715 5711 5706 5701 5697 5694 5694 5686 5679 5674 5667 5662 5657
5762 5764 5766 5769 5771 5773 5773 5771 5770 5770 5767 5767 5766 5764 5762 5760 5757 5753 5750 5746 5743 5739 5735 5732 5728 5725 5721 5717 5713 5709 5704 5700 5695 5688 5680 5675 5671 5666 5662 5658 5652 5645 5638
5757 5759 5762 5765 5767 5768 5767 5765 5764 5763 5763 5761 5760 5758 5755 5752 5749 5745 5741 5738 5735 5732 5728 5724 5720 5717 5713 5708 5703 5698 5692 5686 5680 5674 5666 5659 5651 5642 5640 5634 5629 5622 5615
5753 5755 5758 5760 5762 5762 5761 5759 5759 5758 5757 5755 5753 5750 5747 5745 5741 5738 5734 5731 5727 5724 5720 5717 5713 5708 5703 5697 5691 5685 5678 5670 5663 5655 5648 5641 5634 5627 5619 5615 5603 5598 5587
5748 5750 5753 5756 5757 5756 5755 5754 5753 5752 5750 5748 5746 5743 5740 5737 5734 5731 5727 5723 5720 5716 5712 5707 5702 5697 5691 5684 5678 5670 5663 5656 5648 5639 5630 5621 5612 5603 5594 5587 5582 5573 5566
5742 5745 5748 5750 5750 5750 5749 5747 5746 5744 5743 5741 5738 5735 5732 5729 5726 5723 5719 5715 5711 5707 5702 5697 5691 5685 5678 5671 5663 5656 5648 5640 5631 5622 5613 5603 5592 5581 5569 5557 5553 5546 5542
5737 5739 5741 5743 5743 5743 5742 5740 5739 5737 5735 5733 5731 5728 5725 5721 5718 5714 5710 5706 5702 5697 5692 5685 5679 5672 5665 5657 5649 5640 5632 5623 5613 5603 5593 5583 5571 5559 5546 5531 5513 5511 5509
5732 5734 5735 5736 5737 5736 5735 5734 5732 5730 5728 5726 5723 5720 5717 5713 5710 5706 5702 5697 5692 5686 5680 5674 5666 5658 5650 5642 5633 5624 5615 5605 5595 5584 5573 5561 5549 5535 5521 5507 5491 5467 5461
5726 5728 5728 5729 5729 5729 5728 5727 5725 5723 5721 5718 5716 5712 5709 5705 5702 5697 5693 5687 5681 5675 5668 5660 5652 5643 5634 5625 5616 5607 5597 5586 5575 5563 5551 5537 5524 5512 5497 5479 5462 5444 5419
5721 5722 5722 5722 5722 5721 5720 5719 5718 5716 5713 5711 5707 5704 5700 5697 5692 5687 5682 5676 5669 5662 5654 5646 5636 5627 5618 5609 5599 5589 5578 5567 5554 5540 5527 5515 5501 5485 5469 5452 5435 5419 5400
5714 5715 5715 5715 5715 5714 5713 5712 5710 5708 5705 5702 5699 5696 5692 5687 5682 5676 5670 5663 5655 5647 5639 5630 5620 5611 5601 5592 5582 5572 5559 5546 5533 5519 5506 5491 5474 5459 5442 5426 5412 5397 5382
5708 5708 5709 5708 5708 5707 5706 5704 5702 5699 5697 5694 5691 5686 5682 5676 5670 5664 5657 5649 5641 5632 5623 5614 5604 5595 5585 5575 5564 5552 5540 5527 5513 5498 5482 5466 5449 5434 5417 5403 5389 5375 5360
5701 5701 5702 5702 5701 5700 5699 5696 5694 5692 5689 5685 5681 5676 5670 5664 5658 5651 5644 5635 5627 5618 5608 5598 5589 5578 5568 5557 5545 5533 5521 5508 5492 5476 5459 5442 5425 5410 5396 5383 5369 5353 5340
5695 5696 5696 5695 5694 5693 5691 5689 5686 5683 5680 5676 5671 5666 5659 5653 5646 5639 5630 5621 5612 5603 5593 5584 5574 5563 5551 5538 5526 5514 5501 5486 5471 5454 5437 5422 5406 5391 5377 5361 5348 5333 5319
5689 5689 5689 5688 5687 5685 5683 5680 5678 5675 5671 5667 5661 5655 5649 5642 5634 5625 5616 5607 5597 5588 5578 5568 5558 5547 5534 5520 5507 5492 5480 5465 5448 5434 5419 5402 5387 5374 5361 5346 5330 5315 5300
5684 5683 5682 5681 5679 5677 5675 5673 5670 5666 5662 5657 5651 5644 5637 5629 5621 5612 5602 5592 5583 5574 5563 5553 5541 5529 5516 5502 5488 5472 5457 5442 5427 5411 5395 5383 5371 5357 5343 5330 5315 5303 5291
5677 5676 5675 5673 5672 5669 5667 5664 5661 5657 5652 5646 5639 5632 5625 5616 5607 5597 5587 5578 5569 5559 5548 5537 5524 5512 5498 5482 5468 5452 5437 5421 5405 5391 5378 5365 5354 5340 5323 5310 5301 5289 5278
5669 5668 5667 5665 5663 5661 5658 5655 5651 5647 5641 5634 5628 5621 5612 5603 5593 5583 5574 5565 5555 5545 5533 5521 5508 5494 5478 5461 5445 5430 5417 5402 5389 5376 5363 5349 5338 5324 5307 5292 5283 5274 5264
5661 5660 5658 5657 5655 5652 5649 5646 5642 5636 5630 5623 5616 5608 5600 5589 5580 5571 5562 5552 5541 5529 5516 5504 5489 5474 5458 5440 5424 5408 5394 5384 5373 5364 5350 5337 5322 5308 5294 5280 5269 5259 5250
5653 5652 5650 5649 5647 5644 5640 5636 5631 5625 5618 5611 5604 5595 5585 5576 5568 5559 5548 5537 5525 5512 5499 5485 5468 5452 5436 5420 5404 5390 5377 5365 5357 5348 5338 5325 5309 5293 5282 5270 5258 5247 5239
5645 5645 5643 5641 5638 5635 5631 5626 5620 5613 5607 5599 5590 5581 5572 5564 5556 5546 5534 5521 5508 5495 5478 5463 5448 5431 5415 5401 5388 5376 5364 5352 5340 5332 5322 5309 5294 5281 5271 5259 5248 5239 5230
5638 5636 5634 5632 5629 5625 5620 5614 5608 5602 5594 5586 5577 5569 5560 5551 5540 5530 5517 5504 5489 5473 5458 5442 5427 5412 5398 5385 5374 5362 5351 5340 5327 5315 5304 5291 5280 5271 5261 5250 5240 5232 5226
5630 5628 5625 5622 5618 5613 5608 5603 5596 5589 5581 5573 5564 5557 5548 5537 5525 5513 5500 5485 5469 5455 5436 5421 5408 5396 5384 5372 5361 5349 5338 5327 5314 5301 5289 5278 5270 5261 5250 5242 5235 5230 5226
5620 5618 5615 5611 5607 5602 5597 5590 5583 5576 5568 5561 5553 5544 5534 5522 5511 5497 5482 5468 5451 5433 5419 5403 5391 5379 5370 5358 5345 5332 5321 5309 5296 5284 5275 5269 5262 5254 5245 5238 5234 5230 5224
5611 5608 5604 5600 5596 5590 5584 5578 5571 5564 5556 5549 5540 5530 5519 5506 5493 5481 5469 5450 5433 5418 5404 5389 5376 5366 5351 5341 5330 5319 5306 5293 5280 5273 5266 5261 5253 5247 5242 5239 5234 5227 5221
Wind_Speed
29 34 33 30 30 31 30 31 32 34 37 32 27 27 28 32 34 36 37 36 34 34 35 36 36 37 38 39 40 40 41 43 45 47 48 50 51 54 57 59 61 63 65
30 34 32 31 30 30 32 32 34 36 33 28 29 31 33 34 37 38 37 37 36 35 36 37 37 39 40 41 42 44 46 48 49 52 54 56 55 59 62 66 68 70 71
28 32 33 33 32 32 32 33 36 32 21 27 31 33 34 36 37 37 37 36 37 38 38 39 40 40 42 45 47 48 49 51 54 59 64 66 68 70 71 72 74 75 78
29 30 31 30 30 30 32 34 33 30 32 33 33 34 35 37 38 39 37 37 38 39 40 40 42 44 45 46 48 52 55 59 63 65 66 69 74 79 80 80 80 81 82
29 31 30 30 29 30 32 30 30 30 31 32 34 35 36 37 37 37 37 39 39 40 42 42 44 45 48 51 54 57 61 64 66 68 70 73 75 77 81 84 86 86 88
30 31 31 31 30 32 31 29 29 30 32 34 35 36 38 37 37 37 38 39 40 41 42 43 47 50 53 56 60 62 64 65 67 70 74 78 82 84 87 88 89 90 90
32 32 32 31 32 32 30 29 30 32 34 35 36 37 37 37 36 37 38 40 41 43 46 49 51 55 58 61 63 64 67 68 72 75 78 82 85 88 91 95 94 94 95
31 32 33 34 34 33 32 31 32 33 35 36 37 37 37 36 36 37 40 41 44 48 50 53 56 59 61 64 66 68 70 74 77 80 83 86 88 91 95 98 104 104 105
29 31 33 33 32 31 31 32 33 35 36 36 36 36 35 35 37 39 42 45 48 51 54 57 59 62 64 67 69 72 74 77 81 84 87 90 92 96 100 104 109 113 112
30 28 30 31 32 33 33 33 34 33 33 34 34 34 34 37 40 42 46 48 51 54 57 60 63 66 68 70 73 75 78 82 85 88 91 94 98 101 105 109 110 109 107
27 30 31 32 32 32 33 32 30 30 32 32 33 35 37 40 43 46 49 52 55 59 62 64 67 69 71 73 76 79 83 85 88 92 95 98 102 106 109 108 106 102 97
30 31 32 32 31 30 29 29 30 31 32 32 34 38 41 43 46 50 53 57 60 63 66 68 70 72 73 76 79 82 84 88 91 96 100 104 107 107 105 103 98 93 91
29 29 28 27 26 27 29 30 31 32 33 35 39 42 44 46 50 53 58 61 65 68 70 71 72 73 76 79 81 84 87 91 96 100 103 105 104 101 99 95 90 89 89
26 25 25 26 27 30 31 32 32 34 36 40 42 44 47 51 54 59 63 67 69 71 71 71 73 76 78 79 82 85 89 93 97 99 102 101 99 97 92 87 86 88 88
27 26 28 29 30 32 33 33 35 37 39 41 43 47 51 55 60 64 68 70 72 71 70 73 75 75 76 79 85 90 95 98 98 99 100 98 92 87 83 84 87 88 81
26 27 29 31 33 34 34 36 37 38 40 43 47 51 56 60 65 69 72 73 70 70 72 72 73 74 79 85 92 96 98 97 98 98 95 88 82 81 80 85 86 78 75
28 30 33 34 34 34 36 37 38 39 43 47 51 55 61 66 70 73 72 69 68 69 70 72 75 79 85 92 96 98 98 97 95 92 85 79 78 78 83 83 75 69 65
30 33 35 35 36 37 37 36 39 42 47 50 55 60 66 70 73 71 67 67 67 69 72 76 81 86 92 96 98 99 97 94 88 79 77 77 76 79 85 77 68 65 65
33 34 35 37 36 36 36 38 42 46 50 55 60 65 69 73 68 64 64 66 69 73 78 82 87 93 97 98 98 95 92 84 77 74 75 76 76 83 78 71 67 65 63
33 37 39 37 37 35 39 42 46 50 55 60 65 69 72 63 60 61 65 69 74 79 83 89 94 96 96 95 93 89 82 77 73 71 73 74 79 80 67 65 63 61 53
33 33 33 32 37 39 42 46 50 55 60 65 68 68 59 58 59 64 70 75 80 85 89 93 95 95 93 89 84 77 74 72 70 70 70 72 80 68 59 61 60 54 46
31 32 35 37 38 42 46 51 55 60 64 67 62 56 55 58 63 69 76 82 86 89 93 96 95 92 87 80 74 70 69 70 72 71 71 77 70 54 57 58 53 45 37
31 34 36 38 42 47 50 55 60 63 65 56 53 54 57 62 67 73 80 86 90 94 98 97 92 84 78 71 68 67 68 70 73 75 78 72 52 50 53 51 42 33 23
33 36 38 43 47 50 55 59 62 59 52 51 53 56 60 66 70 77 85 90 95 100 97 90 84 76 69 67 67 68 71 73 76 78 70 50 43 49 49 41 29 20 23
36 40 44 47 50 54 57 58 51 49 50 52 55 61 67 70 76 83 91 94 101 99 90 81 76 71 67 68 71 74 76 79 77 66 47 38 41 42 36 25 21 25 28
41 43 46 49 52 55 51 47 47 49 52 55 61 67 72 76 83 89 92 98 100 91 82 75 71 69 72 74 76 78 79 72 58 42 35 37 38 32 19 18 25 30 32
Wind_Direction
234 233 236 239 247 251 259 269 275 277 285 282 280 281 283 285 287 292 295 297 297 298 299 302 303 303 303 303 303 302 300 300 299 298 298 298 299 300 301 300 300 298 297
237 236 238 243 248 253 260 269 276 281 280 278 277 281 284 287 291 293 295 296 296 298 301 302 304 304 303 302 302 302 301 300 299 298 298 299 298 300 301 300 299 299 298
243 240 241 244 249 254 263 271 277 273 265 267 279 284 286 288 290 295 298 299 304 304 302 301 301 301 302 302 301 300 301 302 303 304 302 297 296 296 298 298 300 300 298
243 242 242 244 250 259 269 275 274 269 268 278 285 286 288 290 295 301 302 303 302 299 300 300 300 299 299 301 303 305 306 305 304 303 303 303 301 300 298 301 301 300 298
239 240 243 250 258 269 276 273 272 273 278 283 285 286 290 296 299 300 300 298 298 298 298 298 299 300 303 304 305 306 306 304 303 302 302 302 302 302 301 301 301 300 300
240 243 250 257 264 272 274 275 276 278 280 282 285 289 294 297 299 299 297 295 295 297 299 301 304 303 303 304 304 304 304 303 302 302 303 303 303 303 303 302 302 301 302
243 248 256 262 266 269 272 272 274 277 281 284 288 291 295 298 298 296 296 298 300 301 302 303 302 303 304 304 304 304 303 302 303 303 303 303 303 304 305 305 304 304 304
246 251 257 261 265 266 267 270 274 278 282 285 289 293 296 296 295 296 297 298 300 302 302 303 304 305 305 305 304 303 303 304 305 304 304 304 306 307 308 308 308 306 305
252 255 259 265 268 270 271 272 276 279 282 287 290 294 294 295 295 295 297 299 301 303 305 306 306 306 306 305 304 304 305 305 305 305 305 307 308 310 310 309 308 307 305
253 257 261 265 268 270 274 275 275 280 284 288 292 293 294 294 295 298 300 303 305 307 308 308 307 307 306 306 306 306 307 306 306 308 309 311 311 310 310 310 308 306 306
253 257 262 267 272 275 275 276 280 284 286 290 293 293 293 296 299 302 306 308 310 310 309 308 308 307 307 308 308 309 308 308 310 312 312 312 311 312 311 309 308 307 307
257 263 267 272 275 274 275 279 283 287 291 293 293 294 297 301 305 308 311 312 311 310 310 309 308 309 309 309 309 309 311 312 313 313 313 314 314 312 310 309 309 309 308
258 263 268 270 273 275 279 284 288 291 291 293 295 298 302 307 310 312 313 312 311 311 310 309 310 310 311 311 311 313 314 315 315 315 315 315 313 312 310 310 310 310 309
265 268 269 272 274 279 284 288 289 290 292 295 299 304 308 311 313 313 312 312 312 310 310 310 311 312 312 313 315 317 317 318 318 316 314 313 312 310 311 312 312 310 310
264 265 269 273 277 281 285 287 288 290 293 298 304 308 311 313 313 312 313 313 312 311 311 312 313 313 315 316 316 317 320 320 318 314 314 312 310 312 314 313 313 312 312
263 265 270 275 278 282 284 285 289 293 298 304 307 310 312 312 313 314 313 312 312 312 313 313 313 314 315 316 318 319 319 317 315 313 312 311 312 314 314 315 315 314 313
266 270 273 276 279 281 284 289 293 298 302 304 308 311 311 312 313 313 313 312 313 313 312 313 313 314 315 316 317 317 316 315 314 313 313 312 314 315 316 316 314 313 317
270 271 274 277 280 282 288 292 296 298 303 307 309 310 311 311 313 313 313 315 315 314 314 314 315 315 316 317 316 316 316 315 314 313 312 314 317 317 319 315 314 312 313
272 276 278 277 279 284 290 294 296 300 305 307 308 308 310 312 313 315 316 316 316 315 316 317 317 317 317 316 316 316 316 315 313 313 314 317 317 320 318 316 316 314 312
276 275 274 274 281 292 291 294 298 303 306 307 307 309 310 312 315 317 317 317 318 319 319 319 319 317 317 316 316 316 316 314 314 314 316 317 319 319 317 316 317 319 316
277 278 282 289 288 288 292 297 301 304 305 305 307 309 311 314 316 317 320 322 321 320 319 320 320 317 317 317 317 316 315 314 315 316 317 318 319 317 317 317 317 318 319
278 282 284 284 287 292 297 300 302 302 303 305 307 310 313 315 319 322 324 324 322 321 322 322 320 319 319 318 316 315 315 315 316 317 319 319 319 316 318 319 319 320 322
277 278 281 288 293 295 299 301 300 302 304 305 308 312 315 319 322 326 327 327 326 325 323 321 321 320 318 317 316 316 315 316 317 318 319 319 317 319 321 323 324 328 328
280 285 291 293 296 298 299 299 301 303 304 307 311 315 318 321 322 325 325 326 327 325 322 321 321 319 317 317 317 315 316 317 317 318 318 318 319 323 324 325 331 333 329
289 291 291 294 297 297 298 300 301 303 307 311 314 317 320 321 322 324 325 326 326 324 323 321 320 319 319 318 317 317 318 318 318 318 319 319 324 324 325 328 332 336 339
287 289 293 295 295 298 300 301 304 308 311 313 316 319 321 322 323 323 323 325 325 323 322 321 320 320 319 318 318 318 319 319 318 320 321 326 326 327 328 326 333 338 336